Preview of NWS' New Version of Forecast
This preview is not operational and should not be used for support decisions.

Regional Weather Roundup (RWR)

Issued by National Weather Service (NWS)

                            
000
ASUS43 KBIS 180510
RWRND 

NORTH DAKOTA REGIONAL WEATHER ROUNDUP
NATIONAL WEATHER SERVICE BISMARCK ND
1200 AM CDT THU JUL 18 2019

NOTE: "FAIR" INDICATES FEW OR NO CLOUDS BELOW 12,000 FEET WITH NO
SIGNIFICANT WEATHER AND/OR OBSTRUCTIONS TO VISIBILITY.


NDZ001>003-009>011-017-180600-
NORTHWEST NORTH DAKOTA
  
CITY           SKY/WX    TMP DP  RH WIND       PRES   REMARKS
WILLISTON      PTCLDY    67  61  81 S7        29.69S                  
MINOT          PTCLDY    70  58  65 S5        29.67S                  
MINOT AFB      PTCLDY    64  59  85 N14       29.68R                  
$$
 
NDZ018>021-031>035-040>046-180600-
SOUTHWEST NORTH DAKOTA
  
CITY           SKY/WX    TMP DP  RH WIND       PRES   REMARKS
BISMARCK       MOCLDY    66  62  87 CALM      29.70R                  
DICKINSON      PTCLDY    61  59  93 SE5       29.72F                  
GARRISON         N/A     64  61  90 E6        29.69F                  
HETTINGER ARPT PTCLDY    67  61  81 MISG      29.75F                  
$$
 
NDZ004>008-012>016-024-026-027-054-180600-
NORTHEAST NORTH DAKOTA
  
CITY           SKY/WX    TMP DP  RH WIND       PRES   REMARKS
GRAND FORKS    MOCLDY    68  64  87 SW5       29.66F                  
GRND FRKS AFB  MOCLDY    67  66  97 SW3       29.67F                  
DEVILS LAKE    MOCLDY    73  64  73 S8        29.68F                  
$$
 
NDZ022-023-025-028>030-036>039-047>053-180600-
SOUTHEAST NORTH DAKOTA
  
CITY           SKY/WX    TMP DP  RH WIND       PRES   REMARKS
FARGO          PTCLDY    71  68  90 CALM      29.68F                  
JAMESTOWN      CLEAR     70  67  90 S8        29.71F                  
$$